Location: Naalehu
(19.0640°N, 155.5860°W)
Time: 18:37:48
(UTC-10:00)

Hubble Space Telescope - Visible Passes

Search period start: 17 June 2019 00:00
Search period end: 27 June 2019 00:00
Orbit: 536 x 540 km, 28.5° (Epoch: 16 June)

Date Brightness Start Highest point End Pass type
(mag) Time Alt. Az. Time Alt. Az. Time Alt. Az.
17 Jun 2.9 03:28:00 21° N 03:28:25 21° N 03:31:36 10° NE visible
17 Jun 2.4 05:06:24 10° NW 05:10:09 33° NNE 05:13:53 10° E visible
18 Jun 3.0 03:18:11 22° N 03:18:11 22° N 03:21:15 10° NE visible
18 Jun 2.1 04:55:50 10° NW 04:59:43 39° NNE 05:03:35 10° E visible
19 Jun 3.1 03:08:32 21° NNE 03:08:32 21° NNE 03:10:57 10° ENE visible
19 Jun 1.7 04:45:15 10° WNW 04:49:14 48° NNE 04:53:14 10° E visible
20 Jun 3.4 02:59:06 18° NE 02:59:06 18° NE 03:00:40 10° ENE visible
20 Jun 1.2 04:34:41 10° WNW 04:38:46 61° NNE 04:42:50 10° ESE visible
20 Jun 2.7 19:58:51 10° S 20:00:24 14° SSE 20:00:24 14° SSE visible
21 Jun 3.8 02:49:54 13° ENE 02:49:54 13° ENE 02:50:23 10° ENE visible
21 Jun 0.8 04:25:17 18° WNW 04:28:16 80° NNE 04:32:23 10° ESE visible
21 Jun 2.2 19:47:30 10° SSW 19:50:28 19° SSE 19:51:55 16° ESE visible
21 Jun 3.6 21:27:19 10° WSW 21:27:21 10° WSW 21:27:21 10° WSW visible
22 Jun 0.6 04:16:21 40° WNW 04:17:45 79° SSW 04:21:52 10° ESE visible
22 Jun 1.9 19:36:27 10° SSW 19:39:54 25° SSE 19:43:20 10° E visible
22 Jun 2.6 21:16:51 10° WSW 21:18:46 26° W 21:18:46 26° W visible
23 Jun 0.9 04:07:39 54° S 04:07:39 54° S 04:11:16 10° SE visible
23 Jun 1.5 19:25:34 10° SW 19:29:21 34° SSE 19:33:07 10° E visible
23 Jun 1.6 21:06:25 10° W 21:09:59 50° NW 21:09:59 50° NW visible
24 Jun 2.6 03:59:07 20° SE 03:59:07 20° SE 04:00:35 10° SE visible
24 Jun 1.8 20:56:03 10° W 21:00:00 43° NNW 21:00:57 36° NNE visible
25 Jun 2.2 20:45:43 10° W 20:49:32 36° NNW 20:51:40 21° NE visible
26 Jun 2.5 20:35:25 10° WNW 20:39:06 31° NNW 20:42:08 14° NE visible
